Location: Grange Verzio
(44.5000°N, 6.9833°E)
Time: 12:07:09
(UTC+00:00)

Cosmos 1980 Rocket - Pass Details

Date: 01 February 2023
Orbit: 828 x 851 km, 71.0° (Epoch: 25 March)

Event Time Altitude Azimuth Distance (km) Brightness Sun altitude
Rises 17:28:54 0° 223° (SW) 3,377 6.4 -8.9°
Reaches altitude 10° 17:31:26 10° 230° (SW) 2,450 5.8 -9.4°
Maximum altitude 17:36:48 45° 302° (WNW) 1,145 3.3 -10.3°
Drops below altitude 10° 17:42:15 10° 15° (NNE) 2,479 4.4 -11.2°
Sets 17:44:50 0° 22° (NNE) 3,421 5.0 -11.7°
